STARLINK-1263, 45405

Orbit data source: Space-Track

STARLINK-1263, 45405 is a payload satellite owned by SpaceX/Seattle (US) in LEO that was launched on Wed, 18 Mar 2020 UTC via an FALCON 9 launch vehicle from the Air Force Eastern Test Range (AFETR). Payload-class satellites include a variety of spacecraft equipped with specific instruments for various scientific and technological missions. These include communications satellites like Starlink; space stations such as the ISS; scientific satellites like the Hubble; Earth observation satellites from companies like Planet Labs, Umbra, and HawkEye 360; GPS; miniature CubeSats for education and research; and military/defense satellites.

Loading next visibility...
Identifier
45405, 2020-019AX
Orbit
LEO
Last TLE update
19 hours ago
Origin
Manufacturer
SpaceX/Seattle
Mission
Operational Commercial Communications
Bus & Motor
STARLINK, Unknown motor
Mass
260 kg wet, ~248 kg dry
Launch date (UTC)
2020-03-18 (5 years ago)
Launch vehicle
FALCON 9
Launch site
Air Force Eastern Test Range (AFETR)
Object type
Payload
Rocket body
Debris
Shape & HBR
Box + 1 Pan, 8.86 m
Radar Cross Section
13.562 m², Large (>1 m²)

Expand to show TLE details & history

TLE from 19 hours ago
0 STARLINK-1263
1 45405U 20019AX  25181.31854806 -.00000077  00000-0  13699-4 0  9999
2 45405  53.0540 189.5558 0001143  87.7279 272.3841 15.06395570291827
Epoch: 2025-06-30T07:38Z
TLE epoch observation values (Epoch: 2025-06-30T07:38:42.552Z)
Latitude
-0°
Longitude
156.24843°
Altitude
548.071 km
Speed
7.589 km/s
True Right ascension
12h 38m 13s
True Declination
0° 00' 00"
Sunlit
Object was in daylight at epoch
Visualization orbit readout
Latitude
-39.6103°
Longitude
11.0217°
Altitude
560.855 km
Speed
7.58 km/s
Apparent Right ascension
02h 24m 24s
Apparent Declination
-39° 53' 39"
Sunlit
Object is in daylight
Visualization observer readout
Local Sidereal Time
13:48:25
Azimuth
267.293° W
Elevation
-83.103°
Doppler factor
1
Orbital elements
Apogee altitude
548.288 km
Perigee altitude
546.704 km
Semi-major axis
6,925.633 km
Eccentricity
0.00011
Inclination
53.054°
RAAN
189.5558°
Arg. of periapsis
87.7279°
True anomaly
Unknown
Mean anomaly
272.3841°
Eccentric anomaly
Unknown
Mean motion
3.76577 °/min
Orbital period
95.6 mins
BSTAR
0.000013699
Loading maneuver chart data...
Loading SW <> Apogee altitude chart data...
Loading historical data...
Loading historical data...
Loading historical data...
Loading historical data...
Loading historical data...
Loading historical data...
Loading historical data...

STARLINK-1263 Visibility forecast

Observer location: undefined°, undefined°

Span
Click to sort rows by Start time (UTC) header in descending order
Start Az.
Max El. time (UTC)
Max El. Az.
Max El.
End time (UTC)
End Az.
7 mins2025-07-01 02:55:20.336Z210.804° SW2025-07-01 02:58:20.336Z141.654° SSE39.793°2025-07-01 03:02:20.336Z57.858° ENE
5 mins2025-07-01 04:36:20.336Z293.284° NW2025-07-01 04:38:20.336Z338.366° N24.285°2025-07-01 04:41:20.336Z30.127° NE
4 mins2025-07-01 07:58:20.336Z352.509° N2025-07-01 07:59:20.336Z9.846° NNE16.351°2025-07-01 08:02:20.336Z57.825° ENE
6 mins2025-07-01 09:37:20.336Z322.467° NNW2025-07-01 09:40:20.336Z64.012° ENE38.967°2025-07-01 09:43:20.336Z113.873° SE
4 mins2025-07-01 11:17:20.336Z264.78° W2025-07-01 11:19:20.336Z227.618° WSW18.625°2025-07-01 11:21:20.336Z193.463° SSW
|